sat.trackr.live / text

‹ back to catalog

STARLINK-2415

NORAD 47828 · 2021-018AT

PAYLOAD ACTIVE UNKNOWN

§ Identity

Operator
Country
US
Launch date
2021-03-11
Launch site
AFETR
Launch vehicle
Mass (kg)
RCS (m²)

Purposes: comms

External: N2YO · Heavens-Above · Gunter

§ Orbital elements

Epoch: 2026-09-19T23:02:47.880096Z

Period
94.01 min
Inclination
53.1599°
Eccentricity
0.0001189
Mean motion
15.31717277 rev/d
Perigee alt
469.9 km
Apogee alt
471.5 km
Semi-major
6,848.8 km
B*
5.3753e-5
RAAN
71.1986°
Arg perigee
97.6395°
Mean anomaly
262.4742°
Rev number
30,632

§ Raw data

STARLINK-24151 47828U 21018AT  26262.96027639  .00001304  00000+0  53753-4 0  99952 47828  53.1599  71.1986 0001189  97.6395 262.4742 15.31717277306325

JSON: /api/v1/satellites/47828 · /tle

For live sub-satellite position, see the globe view (requires WebGL).

§ Visibility from observer

Set your observer location to see the next 7 days of passes ≥ 10°. The values pass through the URL so the page stays shareable.

No JS? Fill the form by hand. The geolocation button needs JavaScript.